カタログに戻る

THORAD DELTA 1 DEB

運用中LEO
NORAD 42628·DEBRIS·🇺🇸 United States

打ち上げ Nov 15, 1974 から Vandenberg Space Force Base

Loading…

次のパス (今後24時間)

TLE

経年Source: Space-Track

元期: Sep 8, 2026, 22:04 UTC

1 42628U 74089GV  26251.91980753 -.00000254  00000-0 -22308-2 0  9998
2 42628 101.1407 118.2924 0258105 305.0731  52.6358 12.06961486522916

AllMySatでTHORAD DELTA 1 DEBをリアルタイム追跡

Download on the App Store